TimeEDT,TemperatureF,Dew PointF,Humidity,Sea Level PressureIn,VisibilityMPH,Wind Direction,Wind SpeedMPH,Gust SpeedMPH,PrecipitationIn,Events,Conditions,WindDirDegrees,DateUTC
12:54 AM,71.1,57.0,61,29.98,10.0,NNE,12.7,-,N/A,,Overcast,20,2012-10-07 04:54:00
1:54 AM,70.0,55.9,61,29.99,10.0,North,8.1,-,N/A,,Partly Cloudy,10,2012-10-07 05:54:00
3:54 AM,69.1,55.9,63,29.98,10.0,NE,13.8,-,N/A,,Mostly Cloudy,40,2012-10-07 07:54:00
4:54 AM,69.1,57.0,65,29.99,10.0,NNE,12.7,-,N/A,,Overcast,30,2012-10-07 08:54:00
5:54 AM,69.1,57.0,65,30.00,10.0,North,9.2,-,N/A,,Overcast,10,2012-10-07 09:54:00
6:05 AM,69.8,55.4,60,30.01,10.0,North,10.4,-,N/A,,Overcast,350,2012-10-07 10:05:00
6:54 AM,66.9,54.0,63,30.00,10.0,NNE,11.5,-,N/A,,Overcast,20,2012-10-07 10:54:00
7:54 AM,66.9,55.0,66,30.00,10.0,NNE,10.4,-,N/A,,Overcast,30,2012-10-07 11:54:00
8:13 AM,66.2,55.4,68,30.01,10.0,North,11.5,-,N/A,,Overcast,360,2012-10-07 12:13:00
8:23 AM,66.2,55.4,68,30.02,10.0,North,11.5,19.6,N/A,,Overcast,10,2012-10-07 12:23:00
8:30 AM,66.2,53.6,64,30.01,10.0,NNE,13.8,19.6,N/A,,Overcast,30,2012-10-07 12:30:00
8:54 AM,66.9,53.1,61,30.00,10.0,NNE,17.3,-,N/A,,Scattered Clouds,30,2012-10-07 12:54:00
9:36 AM,66.2,55.4,68,30.03,10.0,NNE,13.8,20.7,N/A,,Overcast,20,2012-10-07 13:36:00
9:54 AM,66.9,55.0,66,30.04,10.0,NNE,11.5,-,N/A,,Overcast,20,2012-10-07 13:54:00
10:23 AM,69.8,57.2,64,30.03,10.0,NE,13.8,-,N/A,,Mostly Cloudy,40,2012-10-07 14:23:00
10:54 AM,71.1,57.9,63,30.02,10.0,NE,15.0,-,N/A,,Clear,40,2012-10-07 14:54:00
11:43 AM,71.6,59.0,64,30.02,10.0,NNE,10.4,-,N/A,,Overcast,20,2012-10-07 15:43:00
11:54 AM,70.0,59.0,68,30.05,10.0,NW,13.8,-,0.00,Rain,Light Rain,320,2012-10-07 15:54:00
12:11 PM,64.4,57.2,77,30.07,5.0,WNW,17.3,24.2,0.05,Rain,Light Rain,300,2012-10-07 16:11:00
12:38 PM,62.6,55.4,77,30.03,10.0,North,13.8,-,0.06,,Overcast,360,2012-10-07 16:38:00
1:30 PM,66.2,57.2,73,30.00,10.0,NNE,9.2,-,N/A,,Mostly Cloudy,30,2012-10-07 17:30:00
1:41 PM,66.2,57.2,73,30.00,10.0,NNE,12.7,-,N/A,,Mostly Cloudy,20,2012-10-07 17:41:00
1:54 PM,66.0,57.9,75,30.00,10.0,NNE,12.7,-,N/A,,Overcast,20,2012-10-07 17:54:00
2:54 PM,66.9,57.9,73,29.99,10.0,NNE,13.8,21.9,N/A,,Overcast,30,2012-10-07 18:54:00
3:54 PM,64.9,57.9,78,29.99,10.0,NNE,8.1,-,N/A,,Overcast,30,2012-10-07 19:54:00
4:54 PM,64.9,57.9,78,29.99,10.0,North,9.2,-,N/A,,Overcast,350,2012-10-07 20:54:00
5:54 PM,63.0,57.9,84,30.00,10.0,NNW,8.1,-,N/A,,Overcast,340,2012-10-07 21:54:00
6:54 PM,62.1,57.0,84,30.03,10.0,NW,8.1,-,N/A,,Overcast,320,2012-10-07 22:54:00
7:54 PM,61.0,55.9,83,30.05,10.0,NW,10.4,-,0.00,,Overcast,310,2012-10-07 23:54:00
8:54 PM,61.0,55.9,83,30.09,9.0,WNW,11.5,-,N/A,,Overcast,300,2012-10-08 00:54:00
9:52 PM,57.2,51.8,82,30.13,10.0,NNW,18.4,24.2,N/A,,Overcast,330,2012-10-08 01:52:00
9:54 PM,59.0,52.0,78,30.13,10.0,NNW,15.0,24.2,N/A,,Overcast,330,2012-10-08 01:54:00
10:31 PM,57.2,51.8,82,30.13,10.0,NNW,13.8,-,N/A,,Overcast,330,2012-10-08 02:31:00
10:54 PM,57.9,52.0,81,30.13,10.0,NNW,11.5,-,N/A,,Overcast,340,2012-10-08 02:54:00
11:26 PM,57.2,51.8,82,30.13,10.0,North,13.8,-,N/A,,Overcast,350,2012-10-08 03:26:00
11:36 PM,57.2,51.8,82,30.12,10.0,NNW,13.8,-,N/A,,Overcast,340,2012-10-08 03:36:00
11:54 PM,57.9,52.0,81,30.10,10.0,NNW,16.1,-,N/A,,Overcast,340,2012-10-08 03:54:00